Regional Weather Roundup
Issued by NWS Kansas City/Pleasant Hill, MO

Home | Current Version | Previous Version | Text Only | Print | Product List | Glossary On
Versions: 1 2 3 4 5 6 7 8 9 10 11 12 13 14 15 16 17 18 19 20 21 22 23 24 25 26 27 28 29 30 31 32 33 34 35 36 37 38 39 40 41 42 43 44 45 46 47 48 49 50
000
ASUS43 KEAX 192010
RWREAX

WEATHER ROUNDUP FOR EASTERN KANSAS AND NORTHWEST MISSOURI
NATIONAL WEATHER SERVICE KANSAS CITY/PLEASANT HILL MO
300 PM CDT SAT AUG 19 2017

KSZ040-057-103>105-MOZ028-029-037-043-192100-
...KANSAS CITY METROPOLITAN AREA...

CITY           SKY/WX    TMP DP  RH WIND       PRES   REMARKS
K.C. INTL      SUNNY     88  69  53 CALM      29.95F HX  92
K.C. DOWNTOWN  SUNNY     92  64  39 NW5       29.93F HX  93
LEES SUMMIT    SUNNY     90  67  46 VRB3      29.96F HX  93
OLATHE - IXD   SUNNY     91  70  49 VRB3      29.96F HX  96
OLATHE - OJC   SUNNY     88  70  55 S5        29.95F HX  93
LAWRENCE       SUNNY     90  68  48 SE6       29.94F HX  94

$$

MOZ001>008-011>017-020>025-030>033-038>040-044>046-053-054-192100-
...NORTHERN AND CENTRAL MISSOURI...

CITY           SKY/WX    TMP DP  RH WIND       PRES   REMARKS
ST. JOSEPH     SUNNY     89  66  46 S5        29.93F HX  91
MOSBY          CLEAR     88  64  45 E3        29.94F
WARRENSBURG    SUNNY     88  66  48 CALM      29.95S HX  90
WHITEMAN AFB   SUNNY     88  69  51 N5        29.95F HX  92
CLINTON        SUNNY     90  73  58 S5        29.96F HX  98
SEDALIA        SUNNY     91  69  48 VRB3      29.97F HX  96
WARSAW         NOT AVBL
CHILLICOTHE      N/A     92  57  30 W6        29.94F HX  90
KIRKSVILLE     SUNNY     92  51  24 NW12G18   29.94F

$$

MOZ041-047>049-056>058-063>065-088>090-097-192100-
...EASTERN AND SOUTHERN MISSOURI...

CITY           SKY/WX    TMP DP  RH WIND       PRES   REMARKS
ST. LOUIS INTL MOSUNNY   89  66  46 VRB3      29.94F HX  91
SPIRIT OF STL  MOSUNNY   90  71  53 SW7       29.92F HX  96
COLUMBIA       SUNNY     89  70  53 VRB5      29.95F HX  94
JEFFERSON CITY SUNNY     88  75  65 S3        29.93F HX  97
ROLLA          SUNNY     89  71  55 SW8       29.98F HX  95
OSAGE BEACH    SUNNY     89  71  55 VRB3      29.97F HX  95
SPRINGFIELD    MOSUNNY   90  75  61 SW9       29.98F HX 100
BRANSON        MOSUNNY   90  73  58 W5        30.00F HX  98
JOPLIN         MOSUNNY   93  75  55 VRB5      29.96F HX 104
WEST PLAINS    SUNNY     93  67  42 NW6       29.99F HX  96

$$

IAZ060-094-KSZ022-034>040-054-083-096-NEZ052-066-093-192100-
...KANSAS...SOUTHEAST NEBRASKA AND IOWA...

CITY           SKY/WX    TMP DP  RH WIND       PRES   REMARKS
TOPEKA         SUNNY     93  71  48 E6        29.93F HX 100
MANHATTAN      SUNNY     92  72  51 S8        29.92F HX  99
EMPORIA        CLOUDY    91  75  59 E14G22    29.93F HX 101
CHANUTE        SUNNY     94  75  54 S9        29.94F HX 105
WICHITA        MOSUNNY   97  73  45 SE5       29.90F HX 107
OMAHA          SUNNY     87  57  35 SE5       29.93F
LINCOLN        SUNNY     86  63  45 SE12      29.93F
FALLS CITY     SUNNY     87  64  46 SE8       29.93F
LAMONI         SUNNY     89  55  31 VRB5      29.95F
DES MOINES     MOSUNNY   82  62  50 CALM      29.94F

$$




USA.gov is the U.S. government's official web portal to all federal, state and local government web resources and services.